[[{"header":{"parameterUnit":"m.s-1","parameterCategory":1,"la1":30.2992,"la2":30.254,"lo1":-89.0895,"lo2":-89.0443,"dy":0.0025,"dx":0.0025,"nx":19,"ny":19,"refTime":"2026-05-18T21:00:00:Z","depth":0,"parameterNumber":2,"parameterNumberName":"U-component_of_WINDS"},"data":[0,0,0,-1.4752,-1.4753,-1.4814,-1.4814,-1.4906,-1.4907,0,0,0,0,0,0,0,0,0,0,0,-1.474,-1.4741,-1.4751,-1.4753,-1.4814,-1.4814,-1.4906,-1.4907,0,0,0,0,0,0,0,0,0,0,0,-1.4739,-1.474,-1.4741,-1.4753,-1.4814,-1.4814,-1.4905,-1.4855,0,0,0,0,0,0,0,0,0,0,-1.4794,-1.4788,-1.474,-1.4741,-1.4754,-1.4814,-1.4814,-1.4852,-1.4858,-1.4883,0,-1.4906,0,-1.4908,-1.4914,-1.4914,0,0,0,-1.4749,-1.4783,-1.4794,-1.4742,-1.4754,-1.4814,-1.4785,-1.4855,-1.4862,-1.4891,-1.4907,-1.491,-1.4909,-1.4914,-1.4915,-1.5071,-1.5072,0,0,-1.4746,-1.4754,-1.479,-1.4799,-1.4788,-1.4784,-1.4787,-1.4859,-1.4878,-1.4907,-1.4912,-1.4911,-1.4915,-1.4916,-1.507,-1.5071,0,0,0,-1.4739,-1.4752,-1.4761,-1.4795,-1.4805,-1.4785,-1.479,-1.4875,-1.4877,-1.4913,-1.4912,-1.4915,-1.4917,-1.5069,-1.5071,-1.5125,0,0,0,-1.4736,-1.4748,-1.476,-1.4766,-1.4804,-1.484,-1.4804,-1.4872,-1.4879,-1.4911,-1.4916,-1.4918,-1.5068,-1.507,-1.5121,-1.5149,0,0,0,-1.4734,-1.4748,-1.4759,-1.4766,-1.4792,-1.4839,-1.4845,-1.4873,-1.4879,-1.4914,-1.4918,-1.5068,-1.507,-1.5118,-1.5144,-1.5193,0,0,0,-1.4734,-1.4806,-1.476,-1.4841,-1.4792,-1.4872,-1.4844,-1.4903,-1.494,-1.4916,-1.5068,-1.5071,-1.5117,-1.514,-1.519,-1.5237,-1.5257,0,0,-1.483,-1.4818,-1.4865,-1.4825,-1.4915,-1.4862,-1.496,-1.4986,-1.4982,-1.5042,-1.5046,-1.5123,-1.5143,-1.5193,-1.5367,-1.5383,0,0,0,-1.4899,-1.4932,-1.4954,-1.4989,-1.501,-1.5031,-1.504,-1.505,-1.5101,-1.5014,-1.5154,-1.5166,-1.5194,-1.5216,-1.523,-1.5255,-1.5081,-1.5081,-1.5081,-1.5047,-1.5038,-1.5116,-1.5114,-1.5149,-1.5158,-1.5186,-1.5201,-1.5181,-1.5215,-1.5233,-1.5339,-1.5366,-1.5376,-1.5401,-1.5257,-1.5257,-1.5257,-1.5257,-1.5188,-1.5235,-1.5208,-1.5274,-1.5264,-1.532,-1.5333,-1.5318,-1.537,-1.5325,-1.535,-1.5301,-1.5394,-1.5416,-1.5261,-1.5261,-1.526,-1.526,-1.5259,-1.5284,-1.5305,-1.5316,-1.5366,-1.5406,-1.5403,-1.5454,-1.5444,-1.5435,-1.546,-1.5478,-1.5477,-1.5475,-1.5469,-1.547,-1.547,-1.547,-1.547,-1.5471,-1.538,-1.539,-1.5433,-1.5463,-1.5485,-1.5513,-1.5525,-1.5547,-1.5568,-1.5557,-1.5557,-1.5536,-1.5404,-1.5371,-1.5476,-1.5475,-1.5475,-1.5474,-1.5474,-1.5526,-1.5491,-1.5558,-1.558,-1.5615,-1.5657,-1.5644,-1.569,-1.5707,-1.5733,-1.5707,-1.5611,-1.5598,-1.5587,-1.556,-1.5707,-1.5707,-1.5707,-1.5707,-1.5607,-1.56,-1.5666,-1.5703,-1.5737,-1.5732,-1.5811,-1.5823,-1.5829,-1.584,-1.5817,-1.578,-1.577,-1.5763,-1.5748,-1.5723,-1.5909,-1.5909,-1.5909,-1.5696,-1.5692,-1.576,-1.5764,-1.5792,-1.5816,-1.589,-1.5935,-1.5935,-1.5917,-1.5848,-1.5839,-1.578,-1.5761,-1.574,-1.5717,-1.567,0,0]},{"header":{"parameterUnit":"m.s-1","parameterCategory":1,"la1":30.2992,"la2":30.254,"lo1":-89.0895,"lo2":-89.0443,"dy":0.0025,"dx":0.0025,"nx":19,"ny":19,"refTime":"2026-05-18T21:00:00:Z","depth":0,"parameterNumber":3,"parameterNumberName":"V-component_of_WINDS"},"data":[0,0,0,0.5541,0.5542,0.5549,0.5549,0.5559,0.5559,0,0,0,0,0,0,0,0,0,0,0,0.554,0.554,0.5541,0.5542,0.5549,0.5549,0.5559,0.5559,0,0,0,0,0,0,0,0,0,0,0,0.554,0.554,0.554,0.5542,0.5549,0.5549,0.5559,0.5553,0,0,0,0,0,0,0,0,0,0,0.5546,0.5545,0.554,0.554,0.5542,0.5549,0.5549,0.5553,0.5553,0.5556,0,0.5558,0,0.5559,0.556,0.556,0,0,0,0.5541,0.5544,0.5546,0.554,0.5542,0.5549,0.5545,0.5553,0.5554,0.5557,0.5558,0.5559,0.5559,0.556,0.556,0.5576,0.5576,0,0,0.5541,0.5541,0.5545,0.5546,0.5545,0.5545,0.5546,0.5553,0.5555,0.5558,0.5559,0.5559,0.556,0.556,0.5576,0.5576,0,0,0,0.554,0.5541,0.5542,0.5546,0.5547,0.5545,0.5546,0.5555,0.5555,0.5559,0.5559,0.556,0.556,0.5576,0.5576,0.5581,0,0,0,0.554,0.554,0.5542,0.5542,0.5547,0.5551,0.5547,0.5555,0.5556,0.5559,0.556,0.556,0.5576,0.5576,0.5581,0.5583,0,0,0,0.5539,0.554,0.5541,0.5542,0.5546,0.5551,0.5552,0.5555,0.5556,0.556,0.556,0.5575,0.5576,0.558,0.5583,0.5588,0,0,0,0.5538,0.5545,0.5542,0.555,0.5545,0.5554,0.5552,0.5558,0.5562,0.556,0.5576,0.5576,0.558,0.5583,0.5588,0.5593,0.5595,0,0,0.5547,0.5547,0.5551,0.5548,0.5558,0.5553,0.5563,0.5566,0.5566,0.5573,0.5573,0.5581,0.5583,0.5588,0.5606,0.5608,0,0,0,0.5554,0.5558,0.556,0.5564,0.5567,0.557,0.5572,0.5573,0.5579,0.557,0.5584,0.5585,0.5588,0.5591,0.5592,0.5595,0.5577,0.5577,0.5577,0.5567,0.5567,0.5575,0.5577,0.5581,0.5583,0.5586,0.5588,0.5587,0.559,0.5592,0.5603,0.5606,0.5607,0.561,0.5595,0.5595,0.5595,0.5595,0.558,0.5586,0.5584,0.5592,0.5592,0.5598,0.5601,0.56,0.5606,0.5601,0.5604,0.5599,0.5609,0.5611,0.5595,0.5595,0.5595,0.5595,0.5595,0.5589,0.5591,0.5593,0.56,0.5605,0.5606,0.5613,0.5612,0.5612,0.5615,0.5617,0.5617,0.5617,0.5616,0.5616,0.5616,0.5616,0.5616,0.5616,0.5597,0.5599,0.5604,0.5609,0.5612,0.5616,0.5619,0.5622,0.5626,0.5625,0.5625,0.5623,0.561,0.5606,0.5617,0.5617,0.5617,0.5617,0.5617,0.561,0.5607,0.5616,0.5619,0.5625,0.563,0.5631,0.5637,0.564,0.5643,0.5641,0.5631,0.563,0.5628,0.5626,0.5641,0.5641,0.5641,0.5641,0.5617,0.5617,0.5626,0.5631,0.5637,0.5638,0.5648,0.5651,0.5653,0.5655,0.5653,0.5649,0.5648,0.5647,0.5646,0.5643,0.5662,0.5662,0.5662,0.5626,0.5626,0.5634,0.5637,0.5642,0.5646,0.5656,0.5662,0.5664,0.5663,0.5656,0.5655,0.5649,0.5647,0.5645,0.5643,0.5638,0,0]}]]